[[{"header":{"parameterUnit":"m.s-1","parameterCategory":1,"la1":30.2991,"la2":30.254,"lo1":-89.0895,"lo2":-89.0444,"dy":0.0017,"dx":0.0017,"nx":28,"ny":28,"refTime":"2023-10-05T21:00:00:Z","depth":0,"parameterNumber":2,"parameterNumberName":"U-component_of_WINDS"},"data":[0,0,0,0,0,0,0,0,0,0,0,0,0,0,0,0,0,0,0,0,0,0,0,0,0,0,0,0,0,0,0,0,0,0,0,0,0,0,0,0,0,0,0,0,0,0,0,0,0,0,0,0,0,0,0,0,0,0,-1.123,-1.1227,0,-1.0983,-1.098,-1.0977,-1.0788,-1.0787,-1.0785,-1.0783,-1.0526,-1.0521,-1.0515,0,0,0,0,0,0,0,0,0,0,0,0,0,-1.1532,-1.1527,-1.123,-1.1227,-1.1224,-1.0984,-1.098,-1.0977,-1.0789,-1.0787,-1.0785,-1.0783,-1.0527,-1.0521,-1.0515,0,0,0,0,0,0,0,0,0,0,0,0,0,-1.1354,-1.1526,-1.123,-1.1101,-1.1087,-1.0984,-1.098,-1.0976,-1.0789,-1.0787,-1.0784,-1.0782,-1.0529,-1.0522,-1.0514,-1.0518,0,0,-1.049,-1.0487,0,0,0,0,0,0,0,0,-1.1365,-1.1343,-1.1123,-1.111,-1.1094,-1.0914,-1.0992,-1.0822,-1.079,-1.0902,-1.0783,-1.078,-1.0657,-1.0638,-1.0597,-1.0506,-1.0495,-1.0489,-1.0485,-1.0481,-1.0479,0,0,0,0,0,0,0,-1.1377,-1.1353,-1.1132,-1.112,-1.1102,-1.1053,-1.1025,-1.0959,-1.0797,-1.0892,-1.0878,-1.0852,-1.0648,-1.0606,-1.059,-1.0491,-1.049,-1.0483,-1.0478,-1.0475,-1.0388,-1.0391,0,0,0,0,0,0,-1.141,-1.1364,-1.114,-1.1125,-1.1226,-1.105,-1.1019,-1.0974,-1.0797,-1.0768,-1.0854,-1.0844,-1.062,-1.0599,-1.058,-1.0572,-1.0481,-1.0474,-1.0469,-1.0386,-1.0389,-1.0391,0,0,0,0,0,0,-1.1418,-1.1392,-1.115,-1.124,-1.1206,-1.1048,-1.0999,-1.0971,-1.0928,-1.0768,-1.0738,-1.0841,-1.0617,-1.0591,-1.0535,-1.0561,-1.047,-1.0463,-1.0383,-1.0387,-1.039,-1.0558,0,0,0,0,0,0,-1.1427,-1.1396,-1.1398,-1.1242,-1.1202,-1.1111,-1.1001,-1.0968,-1.0916,-1.09,-1.0748,-1.072,-1.0613,-1.0548,-1.0527,-1.0548,-1.0457,-1.038,-1.0385,-1.0389,-1.0549,-1.0567,-1.0581,0,0,0,0,0,-1.1439,-1.1454,-1.1399,-1.1373,-1.1201,-1.1113,-1.109,-1.0968,-1.0919,-1.0918,-1.0815,-1.0725,-1.0561,-1.0543,-1.0519,-1.0538,-1.0378,-1.0383,-1.0389,-1.0542,-1.0563,-1.0581,0,0,0,0,0,0,-1.1614,-1.1431,-1.1368,-1.1334,-1.1241,-1.1081,-1.1076,-1.0994,-1.0912,-1.09,-1.0751,-1.0718,-1.0677,-1.0601,-1.0585,-1.0531,-1.0458,-1.0459,-1.0583,-1.0602,-1.0618,-1.0637,-1.0451,0,0,0,0,0,-1.1649,-1.1596,-1.1437,-1.1422,-1.1379,-1.1237,-1.1193,-1.1108,-1.1004,-1.0964,-1.0856,-1.0758,-1.0684,-1.0638,-1.0562,-1.0537,-1.05,-1.0538,-1.0554,-1.0568,-1.057,-1.055,-1.0565,-1.0409,-1.0409,-1.0409,0,0,-1.1721,-1.1614,-1.1588,-1.1455,-1.1372,-1.1318,-1.1204,-1.1151,-1.1109,-1.0955,-1.0895,-1.0814,-1.0693,-1.0653,-1.063,-1.0589,-1.0605,-1.0575,-1.0588,-1.0582,-1.0557,-1.0572,-1.0585,-1.0413,-1.0412,-1.0412,0,0,-1.1822,-1.1737,-1.1715,-1.1635,-1.1513,-1.1418,-1.1413,-1.1265,-1.1206,-1.1144,-1.1027,-1.0973,-1.0849,-1.0768,-1.0711,-1.0782,-1.0696,-1.0761,-1.0846,-1.0828,-1.084,-1.085,-1.0874,-1.0885,-1.0764,-1.0764,-1.0764,0,-1.1926,-1.1841,-1.1713,-1.1667,-1.1611,-1.1471,-1.1446,-1.1374,-1.1232,-1.1196,-1.1152,-1.0993,-1.0902,-1.084,-1.0858,-1.0816,-1.0804,-1.0778,-1.0849,-1.0858,-1.0865,-1.0886,-1.0896,-1.0773,-1.0772,-1.0771,-1.077,0,-1.1974,-1.1917,-1.1913,-1.1782,-1.1725,-1.169,-1.1554,-1.1512,-1.1431,-1.134,-1.1278,-1.1164,-1.1062,-1.104,-1.096,-1.0966,-1.0945,-1.0877,-1.08,-1.0891,-1.0908,-1.0915,-1.0785,-1.0782,-1.078,-1.0778,0,0,-1.2179,-1.1978,-1.1979,-1.1917,-1.1772,-1.1724,-1.1682,-1.1583,-1.1549,-1.1455,-1.1415,-1.1313,-1.1249,-1.1185,-1.1094,-1.1078,-1.114,-1.1011,-1.1006,-1.1039,-1.1139,-1.119,-1.1202,-1.1082,-1.1083,-1.1084,-1.1148,0,-1.2258,-1.2177,-1.206,-1.2017,-1.1961,-1.1827,-1.1789,-1.1695,-1.1609,-1.1548,-1.1451,-1.1381,-1.1303,-1.1263,-1.1241,-1.1138,-1.1158,-1.1131,-1.1041,-1.104,-1.1076,-1.1211,-1.1266,-1.1332,-1.1154,-1.1156,-1.1156,0,-1.2338,-1.2255,-1.2207,-1.2066,-1.2038,-1.2007,-1.1906,-1.185,-1.174,-1.1677,-1.1606,-1.1508,-1.1453,-1.1385,-1.1307,-1.1292,-1.1247,-1.1191,-1.119,-1.1177,-1.1104,-1.1201,-1.135,-1.136,-1.1166,-1.1165,-1.1165,0,-1.2493,-1.2368,-1.2322,-1.2274,-1.2108,-1.2089,-1.2019,-1.1906,-1.1854,-1.1765,-1.1729,-1.1635,-1.1583,-1.1512,-1.139,-1.1351,-1.1325,-1.1246,-1.127,-1.1274,-1.1271,-1.1273,-1.1415,-1.1244,-1.1244,-1.1244,-1.1244,0,-1.2592,-1.2568,-1.239,-1.2362,-1.233,-1.2195,-1.2166,-1.2083,-1.1983,-1.1935,-1.1812,-1.1769,-1.1612,-1.1549,-1.1453,-1.1403,-1.1381,-1.1327,-1.1302,-1.1338,-1.1345,-1.1307,-1.1299,-1.1246,-1.1246,-1.1245,-1.1245,0,-1.2759,-1.2639,-1.258,-1.2429,-1.239,-1.2373,-1.2241,-1.2208,-1.2115,-1.2056,-1.2034,-1.1886,-1.1807,-1.1678,-1.1561,-1.1496,-1.1462,-1.142,-1.1501,-1.1485,-1.1516,-1.1515,-1.1638,-1.1647,-1.1473,-1.1475,-1.1477,0,-1.283,-1.2808,-1.2655,-1.2615,-1.255,-1.2487,-1.2434,-1.2299,-1.2248,-1.212,-1.2102,-1.2013,-1.1935,-1.1814,-1.1695,-1.1604,-1.1558,-1.1607,-1.1543,-1.158,-1.1557,-1.156,-1.1557,-1.1622,-1.1625,-1.1627,-1.1629,0,-1.2969,-1.2911,-1.284,-1.2749,-1.2689,-1.261,-1.2524,-1.2498,-1.2344,-1.2292,-1.221,-1.215,-1.203,-1.1943,-1.1835,-1.1759,-1.1668,-1.165,-1.165,-1.1687,-1.1734,-1.1708,-1.1541,-1.1648,-1.1646,-1.1644,-1.1643,-1.1643,-1.3088,-1.3063,-1.2952,-1.2876,-1.2799,-1.2721,-1.2683,-1.2585,-1.2516,-1.2409,-1.2333,-1.2256,-1.2144,-1.199,-1.1919,-1.1855,-1.1815,-1.1816,-1.1816,-1.1818,-1.1831,-1.1746,-1.1835,-1.1834,-1.1833,-1.1833,-1.1832,0,-1.322,-1.3142,-1.3075,-1.296,-1.2901,-1.2823,-1.2723,-1.2678,-1.2613,-1.2517,-1.2443,-1.2348,-1.2263,-1.2138,-1.2042,-1.2015,-1.197,-1.1994,-1.1994,-1.1978,-1.1873,-1.1882,-1.2032,-1.2032,-1.2032,-1.2032,-1.2032,-1.2032,-1.3282,-1.3235,-1.3164,-1.3075,-1.2996,-1.2922,-1.2872,-1.2799,-1.2722,-1.2623,-1.2552,-1.2472,-1.2363,-1.2258,-1.2176,-1.214,-1.211,-1.2147,-1.21,-1.2004,-1.1986,-1.1968,-1.1976,-1.2142,-1.2143,-1.2209,-1.221,-1.221]},{"header":{"parameterUnit":"m.s-1","parameterCategory":1,"la1":30.2991,"la2":30.254,"lo1":-89.0895,"lo2":-89.0444,"dy":0.0017,"dx":0.0017,"nx":28,"ny":28,"refTime":"2023-10-05T21:00:00:Z","depth":0,"parameterNumber":3,"parameterNumberName":"V-component_of_WINDS"},"data":[0,0,0,0,0,0,0,0,0,0,0,0,0,0,0,0,0,0,0,0,0,0,0,0,0,0,0,0,0,0,0,0,0,0,0,0,0,0,0,0,0,0,0,0,0,0,0,0,0,0,0,0,0,0,0,0,0,0,-1.1502,-1.1499,0,-1.1205,-1.1202,-1.1199,-1.1017,-1.1016,-1.1016,-1.1015,-1.0721,-1.0714,-1.0707,0,0,0,0,0,0,0,0,0,0,0,0,0,-1.192,-1.1913,-1.1503,-1.1499,-1.1495,-1.1206,-1.1202,-1.1198,-1.1018,-1.1016,-1.1015,-1.1014,-1.0723,-1.0715,-1.0706,0,0,0,0,0,0,0,0,0,0,0,0,0,-1.1693,-1.1911,-1.1503,-1.137,-1.1355,-1.1207,-1.1202,-1.1197,-1.1018,-1.1016,-1.1015,-1.1014,-1.0726,-1.0716,-1.0705,-1.0669,0,0,-1.0673,-1.0669,0,0,0,0,0,0,0,0,-1.1706,-1.1678,-1.1393,-1.1379,-1.1362,-1.1147,-1.1241,-1.102,-1.1018,-1.1146,-1.1015,-1.1013,-1.0864,-1.0842,-1.079,-1.0655,-1.0643,-1.0673,-1.0666,-1.0662,-1.0659,0,0,0,0,0,0,0,-1.1722,-1.1689,-1.1385,-1.1389,-1.137,-1.1327,-1.1293,-1.1198,-1.1017,-1.1135,-1.1121,-1.1088,-1.0856,-1.0801,-1.0782,-1.0638,-1.0673,-1.0664,-1.0657,-1.0653,-1.0456,-1.0457,0,0,0,0,0,0,-1.1758,-1.1704,-1.1395,-1.1376,-1.1534,-1.1321,-1.1283,-1.1217,-1.1018,-1.0986,-1.1089,-1.108,-1.0819,-1.0794,-1.0771,-1.0712,-1.0662,-1.0652,-1.0646,-1.0455,-1.0456,-1.0457,0,0,0,0,0,0,-1.1767,-1.1732,-1.1406,-1.1536,-1.1491,-1.1315,-1.1243,-1.1212,-1.1157,-1.0983,-1.0951,-1.1066,-1.0817,-1.0786,-1.0694,-1.07,-1.0647,-1.0638,-1.0454,-1.0455,-1.0457,-1.0599,0,0,0,0,0,0,-1.178,-1.1736,-1.1719,-1.1537,-1.1485,-1.1333,-1.1243,-1.1208,-1.1138,-1.1124,-1.0952,-1.0923,-1.0813,-1.0711,-1.0684,-1.0685,-1.063,-1.0453,-1.0455,-1.0456,-1.0593,-1.0605,-1.0615,0,0,0,0,0,-1.1796,-1.1774,-1.172,-1.1683,-1.146,-1.1334,-1.1305,-1.1176,-1.114,-1.1122,-1.1009,-1.0928,-1.0704,-1.0703,-1.0671,-1.0669,-1.0452,-1.0454,-1.0456,-1.0588,-1.0602,-1.0615,0,0,0,0,0,0,-1.1966,-1.1748,-1.1685,-1.1603,-1.1488,-1.1304,-1.1277,-1.1197,-1.1092,-1.1084,-1.0932,-1.0895,-1.0818,-1.0734,-1.0737,-1.0622,-1.0568,-1.0565,-1.0679,-1.0692,-1.0703,-1.0725,-1.0621,0,0,0,0,0,-1.1994,-1.1907,-1.1722,-1.1668,-1.1613,-1.1456,-1.1396,-1.1306,-1.1183,-1.1134,-1.1015,-1.0901,-1.0803,-1.0743,-1.0645,-1.058,-1.0539,-1.0562,-1.0574,-1.0584,-1.0582,-1.0539,-1.0547,-1.0465,-1.0465,-1.0465,0,0,-1.2051,-1.1921,-1.1877,-1.1699,-1.1599,-1.1514,-1.1416,-1.1332,-1.1268,-1.1122,-1.1027,-1.0936,-1.0798,-1.0719,-1.0678,-1.0647,-1.0596,-1.0587,-1.0596,-1.0589,-1.0543,-1.0551,-1.0558,-1.0466,-1.0466,-1.0466,0,0,-1.2111,-1.2005,-1.1946,-1.1847,-1.1695,-1.159,-1.1576,-1.1402,-1.1335,-1.1236,-1.1124,-1.1048,-1.0885,-1.079,-1.0721,-1.0741,-1.0663,-1.0714,-1.0773,-1.0733,-1.074,-1.0745,-1.0751,-1.0755,-1.0713,-1.0714,-1.0714,0,-1.2203,-1.2068,-1.1927,-1.1847,-1.1772,-1.1632,-1.1572,-1.1484,-1.131,-1.1263,-1.1229,-1.1018,-1.0916,-1.0811,-1.0816,-1.0765,-1.0745,-1.0733,-1.0749,-1.0753,-1.0756,-1.076,-1.0763,-1.0721,-1.072,-1.0719,-1.0718,0,-1.2186,-1.2095,-1.2066,-1.1896,-1.1818,-1.175,-1.16,-1.1538,-1.1455,-1.1354,-1.1255,-1.1126,-1.0998,-1.0966,-1.0887,-1.085,-1.0835,-1.0778,-1.0721,-1.0773,-1.0774,-1.0775,-1.0731,-1.0728,-1.0726,-1.0724,0,0,-1.2348,-1.2098,-1.209,-1.201,-1.1831,-1.1758,-1.1683,-1.1553,-1.1503,-1.1387,-1.132,-1.1184,-1.1128,-1.1049,-1.0957,-1.0923,-1.0945,-1.0869,-1.0863,-1.0886,-1.0895,-1.0938,-1.0942,-1.0891,-1.0891,-1.0891,-1.0906,0,-1.2381,-1.2235,-1.2105,-1.2007,-1.192,-1.1784,-1.1718,-1.1603,-1.1506,-1.1419,-1.1314,-1.1218,-1.1153,-1.1104,-1.1063,-1.0951,-1.0945,-1.0948,-1.0829,-1.0826,-1.0866,-1.0943,-1.0989,-1.101,-1.0906,-1.0906,-1.0906,0,-1.2401,-1.2286,-1.2178,-1.2004,-1.1963,-1.1906,-1.1774,-1.1693,-1.1559,-1.1491,-1.1401,-1.1303,-1.1219,-1.1171,-1.1052,-1.1057,-1.1,-1.0938,-1.0936,-1.0919,-1.0869,-1.0928,-1.1013,-1.1016,-1.0905,-1.0905,-1.0905,0,-1.2528,-1.2347,-1.2257,-1.2193,-1.1989,-1.1952,-1.1865,-1.1729,-1.1658,-1.1545,-1.1497,-1.1378,-1.1313,-1.1223,-1.1096,-1.1072,-1.099,-1.0932,-1.0932,-1.0935,-1.092,-1.0923,-1.0997,-1.0886,-1.0886,-1.0886,-1.0886,0,-1.2578,-1.2518,-1.2311,-1.2257,-1.2184,-1.2035,-1.1969,-1.1871,-1.1751,-1.1676,-1.1553,-1.1486,-1.1322,-1.1236,-1.1136,-1.1052,-1.1024,-1.0967,-1.0942,-1.0978,-1.0985,-1.0939,-1.0934,-1.0887,-1.0887,-1.0886,-1.0886,0,-1.2708,-1.2567,-1.2461,-1.2274,-1.2226,-1.2181,-1.2022,-1.1964,-1.1859,-1.1766,-1.1736,-1.1572,-1.1463,-1.1327,-1.1177,-1.111,-1.1036,-1.0997,-1.1081,-1.1065,-1.1072,-1.1073,-1.1119,-1.1116,-1.101,-1.1011,-1.1012,0,-1.2749,-1.2698,-1.2505,-1.2443,-1.236,-1.2264,-1.2189,-1.2041,-1.1969,-1.181,-1.1772,-1.1653,-1.155,-1.1384,-1.1253,-1.1137,-1.1094,-1.1118,-1.1076,-1.1113,-1.1093,-1.1097,-1.1091,-1.1129,-1.1131,-1.1132,-1.1134,0,-1.2837,-1.2768,-1.2664,-1.2535,-1.2448,-1.2341,-1.2228,-1.2186,-1.2014,-1.194,-1.1825,-1.1745,-1.1588,-1.1472,-1.1338,-1.1252,-1.1165,-1.1147,-1.1141,-1.1177,-1.1227,-1.1198,-1.1108,-1.1147,-1.1146,-1.1145,-1.1144,-1.1144,-1.2922,-1.287,-1.2724,-1.2611,-1.2509,-1.2406,-1.2341,-1.2225,-1.2126,-1.1984,-1.1903,-1.1791,-1.1656,-1.1466,-1.1383,-1.1294,-1.1262,-1.1254,-1.1251,-1.1251,-1.1261,-1.1241,-1.127,-1.1269,-1.1269,-1.1268,-1.1268,0,-1.3002,-1.2901,-1.2798,-1.2641,-1.2553,-1.2473,-1.2343,-1.2275,-1.2177,-1.2056,-1.1955,-1.1823,-1.1709,-1.1567,-1.1444,-1.14,-1.1357,-1.1373,-1.1374,-1.1355,-1.1298,-1.1315,-1.1409,-1.1409,-1.1409,-1.1409,-1.1409,-1.1409,-1.3034,-1.2939,-1.2853,-1.2707,-1.2606,-1.2491,-1.2424,-1.2327,-1.223,-1.2086,-1.1988,-1.1895,-1.1766,-1.1631,-1.1523,-1.1485,-1.1445,-1.1473,-1.1423,-1.1372,-1.136,-1.1348,-1.1363,-1.1465,-1.1466,-1.1486,-1.1486,-1.1487]}]]